TimeCDT,TemperatureF,Dew PointF,Humidity,Sea Level PressureIn,VisibilityMPH,Wind Direction,Wind SpeedMPH,Gust SpeedMPH,PrecipitationIn,Events,Conditions,WindDirDegrees,DateUTC
12:53 AM,66.9,39.0,36,29.91,10.0,NE,11.5,-,0.00,Rain,Light Rain,50,2013-05-17 05:53:00
1:53 AM,64.0,44.1,48,29.90,10.0,East,11.5,-,0.00,Rain,Light Rain,80,2013-05-17 06:53:00
2:53 AM,64.0,44.1,48,29.89,10.0,East,12.7,-,0.00,,Overcast,90,2013-05-17 07:53:00
3:53 AM,63.0,50.0,63,29.91,10.0,ESE,13.8,-,N/A,,Overcast,120,2013-05-17 08:53:00
4:53 AM,62.1,52.0,70,29.93,10.0,East,11.5,-,0.00,,Overcast,100,2013-05-17 09:53:00
5:53 AM,61.0,50.0,67,29.94,10.0,ESE,17.3,-,0.00,Rain,Light Rain,120,2013-05-17 10:53:00
6:53 AM,59.0,50.0,72,29.96,8.0,ESE,21.9,-,0.00,Rain,Light Rain,120,2013-05-17 11:53:00
7:53 AM,57.9,48.9,72,29.96,10.0,East,15.0,-,0.00,,Overcast,100,2013-05-17 12:53:00
8:53 AM,57.9,48.0,70,29.97,10.0,East,13.8,-,N/A,,Overcast,100,2013-05-17 13:53:00
9:53 AM,60.1,50.0,69,29.98,10.0,ESE,13.8,-,N/A,,Overcast,120,2013-05-17 14:53:00
10:46 AM,60.8,51.8,72,29.99,10.0,East,11.5,-,N/A,,Overcast,100,2013-05-17 15:46:00
10:53 AM,60.1,51.1,72,29.99,10.0,East,13.8,-,N/A,,Overcast,90,2013-05-17 15:53:00
11:53 AM,60.1,52.0,75,30.00,10.0,ESE,15.0,21.9,N/A,,Overcast,110,2013-05-17 16:53:00
12:53 PM,60.1,52.0,75,29.99,10.0,ESE,13.8,-,N/A,,Overcast,120,2013-05-17 17:53:00
1:53 PM,60.8,53.6,77,30.00,9.0,ESE,12.7,19.6,N/A,Rain,Light Rain,120,2013-05-17 18:53:00
2:53 PM,57.9,54.0,87,30.01,9.0,ESE,10.4,-,0.10,Rain,Light Rain,110,2013-05-17 19:53:00
3:32 PM,57.2,53.6,88,30.00,3.0,East,9.2,-,0.07,Rain,Light Rain,90,2013-05-17 20:32:00
3:42 PM,57.2,53.6,88,30.00,2.5,East,12.7,-,0.09,Rain,Rain,80,2013-05-17 20:42:00
3:46 PM,57.2,53.6,88,30.00,3.0,East,13.8,-,0.09,Rain,Rain,100,2013-05-17 20:46:00
3:53 PM,57.0,54.0,89,29.99,3.0,East,11.5,-,0.11,Rain,Light Rain,90,2013-05-17 20:53:00
4:10 PM,57.2,53.6,88,29.99,7.0,East,15.0,-,0.01,Rain,Light Rain,90,2013-05-17 21:10:00
4:31 PM,57.2,55.4,94,29.98,7.0,East,11.5,-,0.02,Rain,Light Rain,100,2013-05-17 21:31:00
4:38 PM,57.2,55.4,94,29.98,9.0,East,10.4,-,0.02,,Overcast,100,2013-05-17 21:38:00
4:53 PM,57.9,55.0,90,29.98,10.0,East,13.8,-,0.02,,Overcast,90,2013-05-17 21:53:00
5:01 PM,57.2,53.6,88,29.98,10.0,East,13.8,-,N/A,,Overcast,90,2013-05-17 22:01:00
5:53 PM,57.9,55.0,90,29.98,6.0,East,12.7,-,0.00,Rain,Rain,100,2013-05-17 22:53:00
6:53 PM,57.9,55.0,90,29.97,8.0,East,11.5,-,0.02,,Overcast,100,2013-05-17 23:53:00
7:53 PM,59.0,55.9,90,29.96,10.0,East,9.2,17.3,N/A,,Overcast,100,2013-05-18 00:53:00
8:53 PM,57.9,55.0,90,29.98,10.0,East,15.0,-,N/A,,Overcast,100,2013-05-18 01:53:00
9:53 PM,57.9,55.0,90,29.98,8.0,ESE,15.0,-,N/A,,Overcast,110,2013-05-18 02:53:00
10:53 PM,57.0,55.0,93,29.99,7.0,ESE,15.0,-,N/A,,Overcast,110,2013-05-18 03:53:00
11:53 PM,57.9,55.0,90,29.99,8.0,East,10.4,-,N/A,,Overcast,100,2013-05-18 04:53:00